| time (UTC) | temp F | wind direction | speed MPH | gust MPH | rain 1hr in | rain 24hr in | rain mn in | humidity % | barometer mb |
| 20260505125018 | 66 | 262 | 26.0 | 37.0 | 0.00 | 0.00 | 0.00 | 60 | 1013.6 |
| 20260505124515 | 65 | 220 | 32.0 | 32.0 | 0.00 | 0.00 | 0.00 | 61 | 1013.3 |
| 20260505124011 | 64 | 277 | 15.0 | 23.0 | 0.00 | 0.00 | 0.00 | 64 | 1013.6 |
| 20260505123508 | 64 | 245 | 7.0 | 23.0 | 0.00 | 0.00 | 0.00 | 64 | 1013.7 |
| 20260505123004 | 63 | 236 | 10.0 | 28.0 | 0.00 | 0.00 | 0.00 | 66 | 1013.6 |
| 20260505122501 | 63 | 227 | 11.0 | 26.0 | 0.00 | 0.00 | 0.00 | 66 | 1013.6 |
| 20260505121958 | 63 | 219 | 21.0 | 28.0 | 0.00 | 0.00 | 0.00 | 65 | 1013.3 |
| 20260505121455 | 64 | 214 | 30.0 | 30.0 | 0.00 | 0.00 | 0.00 | 64 | 1013.5 |
| 20260505120950 | 65 | 233 | 10.0 | 28.0 | 0.00 | 0.00 | 0.00 | 62 | 1013.4 |
| 20260505120447 | 64 | 65 | 0.0 | 16.0 | 0.00 | 0.00 | 0.00 | 64 | 1013.3 |
| 20260505115946 | 63 | 106 | 7.0 | 12.0 | 0.00 | 0.00 | 0.00 | 64 | 1013.4 |
| 20260505115443 | 62 | 201 | 12.0 | 15.0 | 0.00 | 0.00 | 0.00 | 67 | 1013.2 |
| 20260505114941 | 62 | 118 | 0.0 | 6.0 | 0.00 | 0.00 | 0.00 | 67 | 1013.3 |
| 20260505114437 | 62 | 226 | 0.0 | 6.0 | 0.00 | 0.00 | 0.00 | 69 | 1013.1 |
| 20260505113934 | 61 | 201 | 0.0 | 0.0 | 0.00 | 0.00 | 0.00 | 70 | 1012.9 |
| 20260505113425 | 60 | 43 | 0.0 | 0.0 | 0.00 | 0.00 | 0.00 | 70 | 1012.9 |
| 20260505112921 | 61 | 150 | 0.0 | 0.0 | 0.00 | 0.00 | 0.00 | 69 | 1012.9 |
| 20260505112419 | 60 | 18 | 0.0 | 0.0 | 0.00 | 0.00 | 0.00 | 73 | 1013.1 |
| 20260505111914 | 59 | 251 | 0.0 | 0.0 | 0.00 | 0.00 | 0.00 | 74 | 1012.9 |
| 20260505111414 | 58 | 233 | 0.0 | 0.0 | 0.00 | 0.00 | 0.00 | 74 | 1013.0 |
| 20260505110911 | 56 | 221 | 8.0 | 8.0 | 0.00 | 0.00 | 0.00 | 78 | 1012.8 |
| 20260505110408 | 55 | 226 | 0.0 | 0.0 | 0.00 | 0.00 | 0.00 | 80 | 1012.7 |
| 20260505101839 | 53 | 36 | 6.0 | 9.0 | 0.00 | 0.00 | 0.00 | 83 | 1012.5 |
| 20260505101334 | 53 | 83 | 0.0 | 6.0 | 0.00 | 0.00 | 0.00 | 85 | 1012.6 |
| 20260505100830 | 53 | 156 | 0.0 | 6.0 | 0.00 | 0.00 | 0.00 | 83 | 1012.2 |
| 20260505100327 | 53 | 270 | 0.0 | 0.0 | 0.00 | 0.00 | 0.00 | 81 | 1012.3 |
| 20260505095822 | 53 | 282 | 0.0 | 7.0 | 0.00 | 0.00 | 0.00 | 81 | 1012.1 |
| 20260505095320 | 53 | 268 | 6.0 | 8.0 | 0.00 | 0.00 | 0.00 | 82 | 1012.1 |
| 20260505094815 | 53 | 132 | 0.0 | 0.0 | 0.00 | 0.00 | 0.00 | 82 | 1012.2 |
| 20260505094313 | 53 | 123 | 0.0 | 7.0 | 0.00 | 0.00 | 0.00 | 82 | 1012.1 |
| 20260505093808 | 54 | 60 | 0.0 | 6.0 | 0.00 | 0.00 | 0.00 | 80 | 1012.1 |
| 20260505093307 | 53 | 34 | 0.0 | 6.0 | 0.00 | 0.00 | 0.00 | 81 | 1012.2 |
| 20260505092803 | 53 | 124 | 0.0 | 10.0 | 0.00 | 0.00 | 0.00 | 82 | 1012.1 |
| 20260505092304 | 54 | 118 | 0.0 | 7.0 | 0.00 | 0.00 | 0.00 | 80 | 1012.1 |
| 20260505091758 | 54 | 348 | 0.0 | 0.0 | 0.00 | 0.00 | 0.00 | 79 | 1012.1 |
| 20260505091256 | 53 | 26 | 0.0 | 0.0 | 0.00 | 0.00 | 0.00 | 80 | 1012.3 |
| 20260505090754 | 53 | 260 | 6.0 | 6.0 | 0.00 | 0.00 | 0.00 | 81 | 1012.2 |
| 20260505090252 | 53 | 68 | 0.0 | 6.0 | 0.00 | 0.00 | 0.00 | 80 | 1012.2 |
| 20260505085749 | 54 | 64 | 0.0 | 6.0 | 0.00 | 0.00 | 0.00 | 80 | 1012.1 |
| 20260505085247 | 54 | 47 | 0.0 | 0.0 | 0.00 | 0.00 | 0.00 | 80 | 1012.2 |
| 20260505084744 | 54 | 75 | 0.0 | 6.0 | 0.00 | 0.00 | 0.00 | 80 | 1012.0 |
| 20260505084243 | 54 | 43 | 0.0 | 7.0 | 0.00 | 0.00 | 0.00 | 80 | 1012.0 |
| 20260505083739 | 54 | 290 | 0.0 | 8.0 | 0.00 | 0.00 | 0.00 | 79 | 1012.1 |
| 20260505083236 | 54 | 150 | 0.0 | 0.0 | 0.00 | 0.00 | 0.00 | 79 | 1012.0 |
| 20260505082732 | 54 | 251 | 0.0 | 0.0 | 0.00 | 0.00 | 0.00 | 78 | 1011.8 |
| 20260505082230 | 54 | 251 | 0.0 | 0.0 | 0.00 | 0.00 | 0.00 | 78 | 1012.0 |
| 20260505081725 | 55 | 273 | 0.0 | 12.0 | 0.00 | 0.00 | 0.00 | 78 | 1011.8 |
| 20260505081223 | 55 | 70 | 0.0 | 7.0 | 0.00 | 0.00 | 0.00 | 79 | 1011.9 |
| 20260505080720 | 55 | 145 | 0.0 | 6.0 | 0.00 | 0.00 | 0.00 | 78 | 1011.9 |
| 20260505080215 | 55 | 43 | 6.0 | 7.0 | 0.00 | 0.00 | 0.00 | 77 | 1012.0 |
| 20260505075711 | 55 | 251 | 0.0 | 9.0 | 0.00 | 0.00 | 0.00 | 76 | 1012.0 |
| 20260505075209 | 56 | 32 | 0.0 | 0.0 | 0.00 | 0.00 | 0.00 | 76 | 1012.1 |
| 20260505074706 | 56 | 311 | 0.0 | 9.0 | 0.00 | 0.00 | 0.00 | 75 | 1011.9 |
| 20260505074203 | 56 | 76 | 0.0 | 7.0 | 0.00 | 0.00 | 0.00 | 75 | 1011.7 |
| 20260505073700 | 57 | 358 | 0.0 | 8.0 | 0.00 | 0.00 | 0.00 | 75 | 1011.8 |
| 20260505073158 | 57 | 51 | 0.0 | 7.0 | 0.00 | 0.00 | 0.00 | 74 | 1011.8 |
| 20260505072654 | 57 | 83 | 6.0 | 9.0 | 0.00 | 0.00 | 0.00 | 72 | 1011.7 |
| 20260505072150 | 57 | 145 | 0.0 | 7.0 | 0.00 | 0.00 | 0.00 | 74 | 1011.6 |
| 20260505071646 | 57 | 163 | 0.0 | 7.0 | 0.00 | 0.00 | 0.00 | 75 | 1011.7 |
| 20260505071144 | 57 | 71 | 0.0 | 8.0 | 0.00 | 0.00 | 0.00 | 73 | 1011.6 |
| 20260505070641 | 57 | 34 | 0.0 | 8.0 | 0.00 | 0.00 | 0.00 | 72 | 1011.8 |
| 20260505070137 | 57 | 71 | 0.0 | 0.0 | 0.00 | 0.00 | 0.00 | 72 | 1011.8 |
| 20260505065633 | 57 | 25 | 0.0 | 0.0 | 0.00 | 0.00 | 0.00 | 72 | 1011.7 |
| 20260505065130 | 57 | 245 | 0.0 | 0.0 | 0.00 | 0.00 | 0.00 | 72 | 1012.0 |
| 20260505064627 | 57 | 97 | 0.0 | 0.0 | 0.00 | 0.00 | 0.00 | 73 | 1011.8 |
| 20260505064125 | 57 | 58 | 0.0 | 0.0 | 0.00 | 0.00 | 0.00 | 73 | 1012.0 |
| 20260505063622 | 57 | 245 | 0.0 | 0.0 | 0.00 | 0.00 | 0.00 | 74 | 1012.0 |
| 20260505063118 | 57 | 230 | 0.0 | 7.0 | 0.00 | 0.00 | 0.00 | 73 | 1012.1 |
| 20260505062615 | 57 | 214 | 6.0 | 6.0 | 0.00 | 0.00 | 0.00 | 73 | 1012.2 |
| 20260505062112 | 57 | 343 | 0.0 | 0.0 | 0.00 | 0.00 | 0.00 | 75 | 1012.0 |
| 20260505061609 | 57 | 245 | 0.0 | 7.0 | 0.00 | 0.00 | 0.00 | 74 | 1012.2 |
| 20260505061107 | 58 | 238 | 0.0 | 0.0 | 0.00 | 0.00 | 0.00 | 72 | 1012.1 |
| 20260505060604 | 58 | 245 | 0.0 | 7.0 | 0.00 | 0.00 | 0.00 | 72 | 1012.0 |
| 20260505055556 | 58 | 40 | 0.0 | 0.0 | 0.00 | 0.00 | 0.00 | 70 | 1012.1 |
| 20260505055053 | 58 | 147 | 0.0 | 0.0 | 0.00 | 0.00 | 0.00 | 70 | 1012.2 |
| 20260505054550 | 58 | 38 | 0.0 | 0.0 | 0.00 | 0.00 | 0.00 | 69 | 1012.2 |
| 20260505054049 | 58 | 38 | 0.0 | 6.0 | 0.00 | 0.00 | 0.00 | 69 | 1012.2 |
| 20260505053545 | 58 | 245 | 0.0 | 0.0 | 0.00 | 0.00 | 0.00 | 70 | 1012.2 |
| 20260505053042 | 58 | 7 | 0.0 | 0.0 | 0.00 | 0.00 | 0.00 | 70 | 1011.9 |
| 20260505052539 | 58 | 251 | 0.0 | 0.0 | 0.00 | 0.00 | 0.00 | 71 | 1011.9 |
| 20260505052037 | 58 | 241 | 0.0 | 9.0 | 0.00 | 0.00 | 0.00 | 68 | 1011.9 |
| 20260505051533 | 57 | 220 | 12.0 | 12.0 | 0.00 | 0.00 | 0.00 | 69 | 1011.9 |
| 20260505051031 | 57 | 245 | 0.0 | 6.0 | 0.00 | 0.00 | 0.00 | 70 | 1012.0 |
| 20260505050529 | 57 | 235 | 0.0 | 6.0 | 0.00 | 0.00 | 0.00 | 69 | 1012.0 |
| 20260505041457 | 59 | 212 | 16.0 | 18.0 | 0.00 | 0.00 | 0.00 | 63 | 1012.1 |
| 20260505040954 | 57 | 211 | 10.0 | 12.0 | 0.00 | 0.00 | 0.00 | 65 | 1012.2 |
| 20260505040451 | 58 | 241 | 6.0 | 6.0 | 0.00 | 0.00 | 0.00 | 68 | 1011.8 |
| 20260505035948 | 58 | 193 | 0.0 | 7.0 | 0.00 | 0.00 | 0.00 | 65 | 1012.1 |
| 20260505035444 | 59 | 251 | 0.0 | 0.0 | 0.00 | 0.00 | 0.00 | 62 | 1012.0 |
| 20260505034942 | 59 | 267 | 0.0 | 6.0 | 0.00 | 0.00 | 0.00 | 60 | 1012.0 |
| 20260505034438 | 60 | 245 | 0.0 | 6.0 | 0.00 | 0.00 | 0.00 | 60 | 1012.0 |
| 20260505033935 | 60 | 188 | 0.0 | 0.0 | 0.00 | 0.00 | 0.00 | 59 | 1012.0 |
| 20260505033432 | 61 | 243 | 6.0 | 9.0 | 0.00 | 0.00 | 0.00 | 56 | 1011.9 |
| 20260505032930 | 61 | 209 | 8.0 | 13.0 | 0.00 | 0.00 | 0.00 | 55 | 1011.8 |
| 20260505032427 | 61 | 210 | 11.0 | 22.0 | 0.00 | 0.00 | 0.00 | 55 | 1011.7 |
| 20260505031923 | 62 | 229 | 18.0 | 19.0 | 0.00 | 0.00 | 0.00 | 54 | 1011.8 |
| 20260505031420 | 62 | 213 | 16.0 | 18.0 | 0.00 | 0.00 | 0.00 | 54 | 1011.9 |
| 20260505030917 | 62 | 208 | 11.0 | 25.0 | 0.00 | 0.00 | 0.00 | 53 | 1011.7 |
| 20260505030413 | 62 | 216 | 13.0 | 22.0 | 0.00 | 0.00 | 0.00 | 54 | 1011.8 |
| 20260505025909 | 62 | 222 | 23.0 | 23.0 | 0.00 | 0.00 | 0.00 | 54 | 1011.6 |
| 20260505025406 | 62 | 207 | 17.0 | 35.0 | 0.00 | 0.00 | 0.00 | 53 | 1011.7 |
| 20260505024905 | 62 | 216 | 16.0 | 21.0 | 0.00 | 0.00 | 0.00 | 53 | 1011.8 |
| 20260505024402 | 62 | 241 | 10.0 | 28.0 | 0.00 | 0.00 | 0.00 | 52 | 1011.7 |
| 20260505023859 | 62 | 197 | 11.0 | 23.0 | 0.00 | 0.00 | 0.00 | 52 | 1011.7 |
| 20260505023356 | 62 | 218 | 21.0 | 22.0 | 0.00 | 0.00 | 0.00 | 52 | 1011.9 |
| 20260505022853 | 63 | 220 | 16.0 | 19.0 | 0.00 | 0.00 | 0.00 | 52 | 1011.8 |
| 20260505022350 | 63 | 216 | 23.0 | 23.0 | 0.00 | 0.00 | 0.00 | 50 | 1011.8 |
| 20260505021848 | 62 | 222 | 17.0 | 22.0 | 0.00 | 0.00 | 0.00 | 51 | 1011.9 |
| 20260505021344 | 63 | 235 | 15.0 | 22.0 | 0.00 | 0.00 | 0.00 | 51 | 1011.9 |
| 20260505020840 | 63 | 204 | 13.0 | 29.0 | 0.00 | 0.00 | 0.00 | 50 | 1011.9 |
| 20260505020335 | 63 | 234 | 16.0 | 27.0 | 0.00 | 0.00 | 0.00 | 50 | 1011.8 |
| 20260505015832 | 63 | 214 | 17.0 | 21.0 | 0.00 | 0.00 | 0.00 | 50 | 1011.7 |
| 20260505015330 | 63 | 218 | 17.0 | 21.0 | 0.00 | 0.00 | 0.00 | 50 | 1011.9 |
| 20260505014827 | 63 | 212 | 13.0 | 27.0 | 0.00 | 0.00 | 0.00 | 50 | 1012.0 |
| 20260505014324 | 63 | 214 | 19.0 | 23.0 | 0.00 | 0.00 | 0.00 | 50 | 1012.2 |
| 20260505013820 | 63 | 214 | 22.0 | 25.0 | 0.00 | 0.00 | 0.00 | 49 | 1012.1 |
| 20260505013318 | 63 | 213 | 15.0 | 16.0 | 0.00 | 0.00 | 0.00 | 49 | 1012.1 |
| 20260505012816 | 63 | 221 | 12.0 | 25.0 | 0.00 | 0.00 | 0.00 | 49 | 1011.9 |
| 20260505012313 | 63 | 226 | 15.0 | 19.0 | 0.00 | 0.00 | 0.00 | 48 | 1012.0 |
| 20260505011809 | 64 | 239 | 13.0 | 21.0 | 0.00 | 0.00 | 0.00 | 48 | 1011.8 |
| 20260505011306 | 64 | 243 | 17.0 | 25.0 | 0.00 | 0.00 | 0.00 | 47 | 1011.6 |
| 20260505010802 | 64 | 236 | 16.0 | 21.0 | 0.00 | 0.00 | 0.00 | 48 | 1011.5 |
| 20260505010258 | 64 | 259 | 12.0 | 25.0 | 0.00 | 0.00 | 0.00 | 47 | 1011.4 |
| 20260505005754 | 64 | 215 | 22.0 | 31.0 | 0.00 | 0.00 | 0.00 | 46 | 1011.3 |
| 20260505005252 | 64 | 217 | 18.0 | 19.0 | 0.00 | 0.00 | 0.00 | 46 | 1011.4 |
| 20260505004749 | 65 | 219 | 20.0 | 25.0 | 0.00 | 0.00 | 0.00 | 46 | 1011.5 |
| 20260505004245 | 65 | 208 | 18.0 | 22.0 | 0.00 | 0.00 | 0.00 | 46 | 1011.5 |
| 20260505003742 | 65 | 229 | 21.0 | 29.0 | 0.00 | 0.00 | 0.00 | 45 | 1011.3 |
| 20260505003240 | 65 | 201 | 19.0 | 27.0 | 0.00 | 0.00 | 0.00 | 45 | 1011.4 |
| 20260505002736 | 65 | 217 | 16.0 | 25.0 | 0.00 | 0.00 | 0.00 | 46 | 1011.5 |
| 20260505002233 | 66 | 190 | 17.0 | 30.0 | 0.00 | 0.00 | 0.00 | 45 | 1011.3 |
| 20260505001731 | 66 | 201 | 21.0 | 39.0 | 0.00 | 0.00 | 0.00 | 44 | 1011.1 |
| 20260505001228 | 66 | 218 | 22.0 | 36.0 | 0.00 | 0.00 | 0.00 | 44 | 1011.2 |
| 20260505000725 | 66 | 221 | 25.0 | 28.0 | 0.00 | 0.00 | 0.00 | 44 | 1011.1 |
| 20260505000223 | 66 | 220 | 20.0 | 28.0 | 0.00 | 0.00 | 0.00 | 45 | 1011.1 |
| 20260504235719 | 67 | 220 | 19.0 | 41.0 | 0.00 | 0.00 | 0.00 | 44 | 1011.0 |
| 20260504235215 | 67 | 225 | 31.0 | 43.0 | 0.00 | 0.00 | 0.00 | 44 | 1011.1 |
| 20260504234713 | 67 | 210 | 21.0 | 29.0 | 0.00 | 0.00 | 0.00 | 43 | 1010.9 |
| 20260504234210 | 67 | 203 | 18.0 | 34.0 | 0.00 | 0.00 | 0.00 | 44 | 1010.9 |
| 20260504233706 | 68 | 220 | 30.0 | 44.0 | 0.00 | 0.00 | 0.00 | 43 | 1011.0 |
| 20260504233202 | 68 | 210 | 39.0 | 53.0 | 0.00 | 0.00 | 0.00 | 42 | 1010.8 |
| 20260504232700 | 68 | 251 | 27.0 | 44.0 | 0.00 | 0.00 | 0.00 | 42 | 1010.7 |
| 20260504232156 | 68 | 195 | 23.0 | 58.0 | 0.00 | 0.00 | 0.00 | 42 | 1010.7 |
| 20260504231653 | 68 | 225 | 28.0 | 41.0 | 0.00 | 0.00 | 0.00 | 42 | 1011.0 |
| 20260504231149 | 69 | 212 | 25.0 | 41.0 | 0.00 | 0.00 | 0.00 | 42 | 1010.9 |
| 20260504230646 | 69 | 251 | 30.0 | 48.0 | 0.00 | 0.00 | 0.00 | 42 | 1011.0 |
| 20260504230145 | 69 | 205 | 18.0 | 43.0 | 0.00 | 0.00 | 0.00 | 43 | 1010.8 |
| 20260504225643 | 69 | 208 | 29.0 | 39.0 | 0.00 | 0.00 | 0.00 | 41 | 1010.9 |
| 20260504225138 | 70 | 216 | 37.0 | 47.0 | 0.00 | 0.00 | 0.00 | 41 | 1010.8 |
| 20260504224635 | 71 | 228 | 32.0 | 44.0 | 0.00 | 0.00 | 0.00 | 39 | 1010.9 |
| 20260504224132 | 71 | 214 | 21.0 | 31.0 | 0.00 | 0.00 | 0.00 | 37 | 1010.8 |
| 20260504223629 | 71 | 198 | 13.0 | 36.0 | 0.00 | 0.00 | 0.00 | 40 | 1010.9 |
| 20260504223125 | 71 | 260 | 15.0 | 31.0 | 0.00 | 0.00 | 0.00 | 39 | 1010.9 |
| 20260504222622 | 71 | 238 | 18.0 | 40.0 | 0.00 | 0.00 | 0.00 | 37 | 1010.8 |
| 20260504222119 | 71 | 227 | 20.0 | 47.0 | 0.00 | 0.00 | 0.00 | 38 | 1010.9 |
| 20260504221616 | 71 | 246 | 21.0 | 23.0 | 0.00 | 0.00 | 0.00 | 39 | 1010.8 |
| 20260504221113 | 71 | 261 | 31.0 | 45.0 | 0.00 | 0.00 | 0.00 | 36 | 1010.8 |
| 20260504220609 | 71 | 214 | 22.0 | 41.0 | 0.00 | 0.00 | 0.00 | 36 | 1010.9 |
| 20260504220108 | 71 | 228 | 12.0 | 46.0 | 0.00 | 0.00 | 0.00 | 35 | 1010.9 |
| 20260504215603 | 72 | 223 | 17.0 | 47.0 | 0.00 | 0.00 | 0.00 | 37 | 1010.9 |
| 20260504215101 | 72 | 230 | 22.0 | 38.0 | 0.00 | 0.00 | 0.00 | 37 | 1010.9 |
| 20260504214557 | 71 | 270 | 13.0 | 40.0 | 0.00 | 0.00 | 0.00 | 36 | 1010.9 |
| 20260504214053 | 72 | 214 | 20.0 | 23.0 | 0.00 | 0.00 | 0.00 | 38 | 1011.0 |
| 20260504213549 | 72 | 261 | 12.0 | 50.0 | 0.00 | 0.00 | 0.00 | 35 | 1011.0 |
| 20260504213047 | 72 | 223 | 22.0 | 37.0 | 0.00 | 0.00 | 0.00 | 36 | 1011.0 |
| 20260504212542 | 72 | 215 | 25.0 | 47.0 | 0.00 | 0.00 | 0.00 | 37 | 1010.9 |
| 20260504212040 | 72 | 213 | 31.0 | 56.0 | 0.00 | 0.00 | 0.00 | 37 | 1011.0 |
| 20260504211537 | 72 | 256 | 13.0 | 17.0 | 0.00 | 0.00 | 0.00 | 37 | 1010.9 |
| 20260504211034 | 72 | 211 | 30.0 | 51.0 | 0.00 | 0.00 | 0.00 | 36 | 1010.9 |
| 20260504210531 | 72 | 227 | 29.0 | 44.0 | 0.00 | 0.00 | 0.00 | 37 | 1011.0 |
| 20260504210027 | 72 | 255 | 26.0 | 41.0 | 0.00 | 0.00 | 0.00 | 35 | 1011.0 |
| 20260504205526 | 72 | 254 | 9.0 | 30.0 | 0.00 | 0.00 | 0.00 | 36 | 1011.0 |
| 20260504205023 | 72 | 226 | 21.0 | 36.0 | 0.00 | 0.00 | 0.00 | 35 | 1011.0 |
| 20260504204521 | 72 | 255 | 16.0 | 22.0 | 0.00 | 0.00 | 0.00 | 36 | 1011.1 |
| 20260504204020 | 72 | 193 | 0.0 | 25.0 | 0.00 | 0.00 | 0.00 | 35 | 1011.0 |
| 20260504203518 | 72 | 212 | 37.0 | 45.0 | 0.00 | 0.00 | 0.00 | 35 | 1011.3 |
| 20260504203015 | 72 | 206 | 11.0 | 29.0 | 0.00 | 0.00 | 0.00 | 41 | 1011.3 |
| 20260504202510 | 72 | 235 | 11.0 | 23.0 | 0.00 | 0.00 | 0.00 | 37 | 1011.2 |
| 20260504202007 | 72 | 215 | 15.0 | 26.0 | 0.00 | 0.00 | 0.00 | 39 | 1011.4 |
| 20260504201504 | 72 | 235 | 22.0 | 28.0 | 0.00 | 0.00 | 0.00 | 37 | 1011.3 |
| 20260504201002 | 72 | 290 | 0.0 | 13.0 | 0.00 | 0.00 | 0.00 | 40 | 1011.6 |
| 20260504200458 | 71 | 205 | 22.0 | 45.0 | 0.00 | 0.00 | 0.00 | 40 | 1011.4 |
| 20260504195954 | 71 | 225 | 19.0 | 37.0 | 0.00 | 0.00 | 0.00 | 38 | 1011.5 |
| 20260504195451 | 71 | 266 | 8.0 | 47.0 | 0.00 | 0.00 | 0.00 | 36 | 1011.7 |
| 20260504194947 | 71 | 220 | 29.0 | 36.0 | 0.00 | 0.00 | 0.00 | 37 | 1011.7 |
| 20260504194443 | 71 | 226 | 25.0 | 37.0 | 0.00 | 0.00 | 0.00 | 41 | 1011.8 |
| 20260504193939 | 71 | 201 | 11.0 | 26.0 | 0.00 | 0.00 | 0.00 | 36 | 1011.9 |
| 20260504193437 | 72 | 245 | 28.0 | 48.0 | 0.00 | 0.00 | 0.00 | 35 | 1012.1 |
| 20260504192935 | 71 | 227 | 17.0 | 31.0 | 0.00 | 0.00 | 0.00 | 40 | 1012.2 |
| 20260504192432 | 71 | 248 | 13.0 | 20.0 | 0.00 | 0.00 | 0.00 | 36 | 1012.3 |
| 20260504191931 | 71 | 235 | 16.0 | 39.0 | 0.00 | 0.00 | 0.00 | 37 | 1012.4 |
| 20260504191429 | 71 | 197 | 30.0 | 46.0 | 0.00 | 0.00 | 0.00 | 36 | 1012.3 |
| 20260504190924 | 71 | 226 | 27.0 | 45.0 | 0.00 | 0.00 | 0.00 | 39 | 1012.4 |
| 20260504190420 | 71 | 47 | 10.0 | 28.0 | 0.00 | 0.00 | 0.00 | 37 | 1012.4 |
| 20260504185917 | 71 | 250 | 13.0 | 19.0 | 0.00 | 0.00 | 0.00 | 37 | 1012.3 |
| 20260504185414 | 71 | 189 | 20.0 | 44.0 | 0.00 | 0.00 | 0.00 | 37 | 1012.4 |
| 20260504184910 | 71 | 236 | 30.0 | 35.0 | 0.00 | 0.00 | 0.00 | 38 | 1012.5 |
| 20260504184406 | 71 | 206 | 41.0 | 48.0 | 0.00 | 0.00 | 0.00 | 37 | 1012.6 |
| 20260504183902 | 71 | 218 | 34.0 | 39.0 | 0.00 | 0.00 | 0.00 | 36 | 1012.8 |
| 20260504183359 | 71 | 200 | 15.0 | 45.0 | 0.00 | 0.00 | 0.00 | 37 | 1012.7 |
| 20260504182857 | 72 | 209 | 38.0 | 45.0 | 0.00 | 0.00 | 0.00 | 37 | 1012.8 |
| 20260504182354 | 73 | 270 | 16.0 | 25.0 | 0.00 | 0.00 | 0.00 | 34 | 1012.9 |
| 20260504181850 | 73 | 258 | 10.0 | 16.0 | 0.00 | 0.00 | 0.00 | 33 | 1013.0 |
| 20260504181348 | 72 | 277 | 7.0 | 22.0 | 0.00 | 0.00 | 0.00 | 37 | 1012.9 |
| 20260504180847 | 72 | 210 | 18.0 | 32.0 | 0.00 | 0.00 | 0.00 | 38 | 1013.1 |
| 20260504180345 | 72 | 218 | 15.0 | 32.0 | 0.00 | 0.00 | 0.00 | 34 | 1013.2 |
| 20260504175843 | 72 | 176 | 26.0 | 30.0 | 0.00 | 0.00 | 0.00 | 35 | 1013.1 |
| 20260504175339 | 71 | 223 | 27.0 | 41.0 | 0.00 | 0.00 | 0.00 | 39 | 1013.3 |
| 20260504174838 | 72 | 250 | 6.0 | 44.0 | 0.00 | 0.00 | 0.00 | 36 | 1013.0 |
| 20260504174335 | 71 | 206 | 35.0 | 37.0 | 0.00 | 0.00 | 0.00 | 38 | 1013.2 |
| 20260504173832 | 73 | 221 | 36.0 | 59.0 | 0.00 | 0.00 | 0.00 | 35 | 1013.3 |
| 20260504173328 | 71 | 247 | 7.0 | 23.0 | 0.00 | 0.00 | 0.00 | 40 | 1013.2 |
| 20260504172825 | 72 | 182 | 38.0 | 47.0 | 0.00 | 0.00 | 0.00 | 34 | 1013.5 |
| 20260504172322 | 72 | 255 | 6.0 | 17.0 | 0.00 | 0.00 | 0.00 | 37 | 1013.7 |
| 20260504171818 | 71 | 245 | 17.0 | 31.0 | 0.00 | 0.00 | 0.00 | 41 | 1013.9 |
| 20260504171315 | 71 | 259 | 15.0 | 23.0 | 0.00 | 0.00 | 0.00 | 36 | 1013.7 |
| 20260504170812 | 72 | 204 | 30.0 | 35.0 | 0.00 | 0.00 | 0.00 | 34 | 1014.0 |
| 20260504170309 | 72 | 207 | 13.0 | 17.0 | 0.00 | 0.00 | 0.00 | 36 | 1013.9 |
| 20260504160227 | 68 | 202 | 15.0 | 29.0 | 0.00 | 0.00 | 0.00 | 41 | 1014.6 |
| 20260504150652 | 64 | 200 | 13.0 | 26.0 | 0.00 | 0.00 | 0.00 | 40 | 1015.6 |
| 20260504150149 | 64 | 215 | 16.0 | 37.0 | 0.00 | 0.00 | 0.00 | 40 | 1015.5 |
| 20260504141118 | 59 | 214 | 15.0 | 18.0 | 0.00 | 0.00 | 0.00 | 49 | 1015.7 |
| 20260504140615 | 58 | 227 | 18.0 | 21.0 | 0.00 | 0.00 | 0.00 | 50 | 1015.6 |
| 20260504140110 | 58 | 245 | 10.0 | 18.0 | 0.00 | 0.00 | 0.00 | 54 | 1015.7 |
| 20260504130539 | 53 | 240 | 16.0 | 23.0 | 0.00 | 0.00 | 0.00 | 56 | 1016.2 |